Location: Vista Encantada
(35.1109°N, 106.5681°W)
Time: 21:56:46
(UTC+00:00)

Nauka - Pass Details

Date: 05 October 2021
Orbit: 418 x 423 km, 51.6° (Epoch: 21 October)

Event Time Altitude Azimuth Distance (km) Brightness Sun altitude
Rises 02:55:45 0° 305° (NW) 2,362 ? -27.3°
Reaches altitude 10° 02:57:55 10° 298° (WNW) 1,496 ? -27.7°
Enters shadow 02:59:15 21° 287° (WNW) 1,003 ? -28.0°
